Weather History for KIDA - September, 2013

Change the Weather History Date:

Monday, September 23, 2013

  Actual Average Record
Temperature  
Mean Temperature 56 °F 54 °F  
Max Temperature 66 °F 71 °F 88 °F (1987)
Min Temperature 45 °F 38 °F 23 °F (1985)
Degree Days  
Heating Degree Days 9 11  
Month to date heating degree days 63 154  
Since 1 July heating degree days 63 219  
Cooling Degree Days 0 0  
Month to date cooling degree days 50 10  
Year to date cooling degree days 510 262  
Growing Degree Days 4 (Base 50)    
Moisture  
Dew Point 35 °F    
Average Humidity 49    
Maximum Humidity 70    
Minimum Humidity 28    
Precipitation  
Precipitation 0.00 in 0.03 in 0.89 in (1973)
Month to date precipitation 2.05 0.63  
Year to date precipitation 4.75 7.61  
Sea Level Pressure  
Sea Level Pressure 29.93 in    
Wind  
Wind Speed 16 mph (SSW)    
Max Wind Speed 29 mph    
Max Gust Speed 37 mph    
Visibility 10 miles    
Events      
T = Trace of Precipitation, MM = Missing Value Source: NWS Daily Summary

Daily Weather History Graph

Daily Weather History Graph

Search for Another Location

Airport or City:

Trip Planner

Search our weather history database for the weather conditions in past years. The results will help you decide how hot, cold, wet, or windy it might be!

Date:

Astronomy

Sep. 23, 2013 Rise Set
Actual Time 7:17 AM MDT 7:23 PM MDT
Civil Twilight 6:48 AM MDT 7:51 PM MDT
Nautical Twilight 6:14 AM MDT 8:25 PM MDT
Astronomical Twilight 5:40 AM MDT 8:59 PM MDT
Moon 9:49 PM MDT (9/23) 11:48 AM MDT (9/23)
Length of Visible Light 13h 03m
Length of Day
12h 06m
Waning Gibbous, 81% of the Moon is Illuminated
Sep 23
Waning Gibbous
Sep 26
Last Quarter
Oct 4
New
Oct 11
First Quarter
Oct 18
Full

Hourly Weather History & Observations

Time (MDT) Temp. Windchill Dew Point Humidity Pressure Visibility Wind Dir Wind Speed Gust Speed Precip Events Conditions
12:53 AM 51.1 °F - 33.1 °F 50% 29.76 in 10.0 mi SSW 20.7 mph - N/A   Overcast
1:53 AM 48.9 °F - 34.0 °F 56% 29.78 in 10.0 mi SSW 17.3 mph - N/A   Mostly Cloudy
2:53 AM 48.0 °F - 35.1 °F 61% 29.81 in 10.0 mi SSW 15.0 mph - N/A   Clear
3:53 AM 46.9 °F - 35.1 °F 63% 29.84 in 10.0 mi SSW 12.7 mph - N/A   Clear
4:53 AM 46.0 °F 40.2 °F 35.1 °F 66% 29.86 in 10.0 mi SSW 12.7 mph - N/A   Clear
5:53 AM 46.0 °F 40.6 °F 35.1 °F 66% 29.88 in 10.0 mi South 11.5 mph - N/A   Clear
6:53 AM 45.0 °F 39.3 °F 35.1 °F 68% 29.91 in 10.0 mi SSW 11.5 mph - N/A   Clear
7:53 AM 46.9 °F - 36.0 °F 66% 29.94 in 10.0 mi South 11.5 mph - N/A   Clear
8:53 AM 50.0 °F - 37.0 °F 61% 29.95 in 10.0 mi South 13.8 mph 21.9 mph N/A   Clear
9:53 AM 53.1 °F - 37.9 °F 57% 29.97 in 10.0 mi SW 20.7 mph 27.6 mph N/A   Clear
10:53 AM 57.0 °F - 37.9 °F 49% 29.97 in 10.0 mi SW 19.6 mph 25.3 mph N/A   Partly Cloudy
11:53 AM 61.0 °F - 33.1 °F 35% 29.96 in 10.0 mi SW 23.0 mph 34.5 mph N/A   Scattered Clouds
12:53 PM 63.0 °F - 30.9 °F 30% 29.96 in 10.0 mi SW 20.7 mph 27.6 mph N/A   Clear
1:53 PM 64.9 °F - 30.9 °F 28% 29.96 in 10.0 mi WSW 21.9 mph 36.8 mph N/A   Scattered Clouds
2:53 PM 64.9 °F - 32.0 °F 29% 29.95 in 10.0 mi SSW 26.5 mph 34.5 mph N/A   Scattered Clouds
3:53 PM 64.9 °F - 34.0 °F 32% 29.97 in 10.0 mi WSW 19.6 mph 32.2 mph N/A   Partly Cloudy
4:53 PM 64.0 °F - 35.1 °F 34% 29.97 in 10.0 mi SSW 26.5 mph 33.4 mph N/A   Partly Cloudy
5:53 PM 64.0 °F - 34.0 °F 33% 29.97 in 10.0 mi SW 24.2 mph 32.2 mph N/A   Clear
6:53 PM 62.1 °F - 34.0 °F 35% 29.97 in 10.0 mi SSW 18.4 mph - N/A   Clear
7:53 PM 60.1 °F - 34.0 °F 38% 29.98 in 10.0 mi South 12.7 mph 25.3 mph N/A   Clear
8:53 PM 57.9 °F - 36.0 °F 44% 29.99 in 10.0 mi South 10.4 mph - N/A   Clear
9:53 PM 55.9 °F - 36.0 °F 47% 29.99 in 10.0 mi SSE 8.1 mph - N/A   Clear
10:53 PM 57.0 °F - 35.1 °F 44% 29.98 in 10.0 mi South 11.5 mph - N/A   Clear
11:53 PM 55.0 °F - 36.0 °F 49% 29.98 in 10.0 mi South 8.1 mph - N/A   Clear